Location: Sweet Grass
(48.9965°N, 111.9649°W)
Time: 08:35:15
(UTC+00:00)

EO-79 - Pass Details

Date: 04 April 2023
Orbit: 578 x 593 km, 98.0° (Epoch: 03 June)

Event Time Altitude Azimuth Distance (km) Brightness Sun altitude
Rises 09:25:34 0° 17° (NNE) 2,828 ? -29.9°
Reaches altitude 10° 09:27:47 10° 23° (NNE) 1,920 ? -29.7°
Enters shadow 09:30:32 36° 47° (NE) 930 ? -29.4°
